Weather History for Chicago Midway, IL

Change the Weather History Date:

Friday, May 3, 2013

  Actual Average Record
Temperature  
Mean Temperature 45 °F 57 °F  
Max Temperature 50 °F 66 °F 92 °F (1955)
Min Temperature 40 °F 48 °F 32 °F (1971)
Degree Days  
Heating Degree Days 20 9  
Month to date heating degree days 28 28  
Since 1 July heating degree days 5656 5799  
Cooling Degree Days 0 1  
Month to date cooling degree days 9 3  
Year to date cooling degree days 17 16  
Moisture  
Dew Point 41 °F    
Average Humidity 83    
Maximum Humidity 89    
Minimum Humidity 76    
Precipitation  
Precipitation 0.02 in 0.13 in 0.76 in (1935)
Month to date precipitation 0.02 0.37  
Year to date precipitation 11.97 10.73  
Sea Level Pressure  
Sea Level Pressure 30.04 in    
Wind  
Wind Speed 11 mph (NNE)    
Max Wind Speed 22 mph    
Max Gust Speed 28 mph    
Visibility 10 miles    
Events Rain    
T = Trace of Precipitation, MM = Missing Value Source: NWS Daily Summary

Daily Weather History Graph

Daily Weather History Graph

Search for Another Location

Airport:

Trip Planner

Search our weather history database for the weather conditions in past years. The results will help you decide how hot, cold, wet, or windy it might be!

Date:

Astronomy

May. 03, 2013 Rise Set
Actual Time 5:44 AM CDT 7:51 PM CDT
Civil Twilight 5:14 AM CDT 8:22 PM CDT
Nautical Twilight 4:36 AM CDT 9:00 PM CDT
Astronomical Twilight 3:55 AM CDT 9:41 PM CDT
Moon 2:14 AM CDT (5/3) 1:40 PM CDT (5/3)
Length of Visible Light 15h 08m
Length of Day
14h 07m
Last Quarter, 37% of the Moon is Illuminated
May 3
Last Quarter
May 9
New
May 17
First Quarter
May 24
Full
May 31
Last Quarter

Hourly Weather History & Observations

Time (CDT) Temp. Windchill Dew Point Humidity Pressure Visibility Wind Dir Wind Speed Gust Speed Precip Events Conditions
12:51 AM 42.1 °F 34.5 °F 35.1 °F 76% 30.15 in 10.0 mi NNE 15.0 mph 21.9 mph N/A   Overcast
1:51 AM 41.0 °F 32.2 °F 35.1 °F 79% 30.12 in 10.0 mi NNE 18.4 mph 21.9 mph N/A   Overcast
2:51 AM 41.0 °F 31.9 °F 36.0 °F 82% 30.11 in 10.0 mi NNE 19.6 mph 23.0 mph N/A   Overcast
3:51 AM 41.0 °F 33.5 °F 36.0 °F 82% 30.11 in 10.0 mi North 13.8 mph 21.9 mph N/A   Overcast
4:51 AM 41.0 °F 34.3 °F 36.0 °F 82% 30.09 in 10.0 mi NNE 11.5 mph 20.7 mph N/A   Overcast
5:51 AM 41.0 °F 33.9 °F 37.0 °F 86% 30.09 in 9.0 mi NNE 12.7 mph - N/A   Overcast
6:51 AM 41.0 °F 33.9 °F 37.0 °F 86% 30.09 in 7.0 mi NNE 12.7 mph - N/A   Overcast
7:51 AM 41.0 °F 33.1 °F 37.9 °F 89% 30.09 in 7.0 mi North 15.0 mph 20.7 mph 0.00 in   Overcast
8:51 AM 42.1 °F 35.2 °F 37.9 °F 85% 30.08 in 8.0 mi NNE 12.7 mph - N/A   Overcast
9:51 AM 44.1 °F 38.1 °F 39.0 °F 82% 30.07 in 10.0 mi NE 11.5 mph - 0.00 in   Overcast
10:51 AM 45.0 °F 39.3 °F 41.0 °F 86% 30.07 in 10.0 mi NE 11.5 mph - 0.00 in Rain Light Rain
11:51 AM 46.9 °F - 41.0 °F 80% 30.06 in 10.0 mi NNE 9.2 mph - 0.00 in   Overcast
12:30 PM 46.4 °F 41.5 °F 41.0 °F 81% 30.03 in 10.0 mi NNE 10.4 mph - 0.00 in   Overcast
12:46 PM 48.2 °F - 41.0 °F 76% 30.03 in 10.0 mi NNE 11.5 mph - 0.00 in   Overcast
12:51 PM 48.0 °F - 42.1 °F 80% 30.05 in 10.0 mi NNE 10.4 mph - 0.00 in   Overcast
1:11 PM 48.2 °F - 42.8 °F 82% 30.03 in 10.0 mi NE 10.4 mph - 0.00 in Rain Light Rain
1:45 PM 46.4 °F 41.5 °F 42.8 °F 87% 30.03 in 10.0 mi NE 10.4 mph - 0.00 in   Overcast
1:51 PM 48.0 °F - 42.1 °F 80% 30.03 in 10.0 mi North 11.5 mph - 0.00 in Rain Light Rain
2:19 PM 46.4 °F 41.1 °F 42.8 °F 87% 30.01 in 10.0 mi NNE 11.5 mph - 0.00 in Rain Light Rain
2:51 PM 46.0 °F 40.6 °F 42.1 °F 86% 30.01 in 10.0 mi NNE 11.5 mph - 0.01 in   Overcast
3:51 PM 46.9 °F - 43.0 °F 86% 29.99 in 10.0 mi NNE 9.2 mph - 0.00 in   Overcast
4:02 PM 46.4 °F 41.9 °F 42.8 °F 87% 29.97 in 10.0 mi NNE 9.2 mph - 0.00 in Rain Light Rain
4:51 PM 48.9 °F - 44.1 °F 83% 30.00 in 10.0 mi NE 11.5 mph - 0.00 in   Overcast
5:03 PM 48.2 °F - 44.6 °F 87% 29.97 in 10.0 mi NNE 11.5 mph - N/A   Overcast
5:51 PM 46.9 °F - 42.1 °F 83% 29.99 in 10.0 mi NNE 13.8 mph - N/A   Overcast
6:51 PM 46.9 °F - 42.1 °F 83% 29.98 in 10.0 mi North 10.4 mph - N/A   Overcast
7:51 PM 46.0 °F 41.9 °F 43.0 °F 89% 29.99 in 10.0 mi NNE 8.1 mph - 0.01 in   Overcast
8:12 PM 46.4 °F 41.1 °F 42.8 °F 87% 29.97 in 10.0 mi NNE 11.5 mph - N/A   Overcast
8:51 PM 46.0 °F 41.4 °F 43.0 °F 89% 29.98 in 10.0 mi NNE 9.2 mph - N/A   Overcast
9:51 PM 48.0 °F - 44.1 °F 86% 29.99 in 10.0 mi NNE 4.6 mph - N/A   Overcast
10:51 PM 48.9 °F - 45.0 °F 86% 29.97 in 10.0 mi North 6.9 mph - N/A   Overcast
11:51 PM 48.9 °F - 45.0 °F 86% 29.96 in 10.0 mi NNE 6.9 mph - N/A   Overcast